CZ-6A DEB

Satellite information

Favourite Embed

Satellite Type and Status

DEBRISIN ORBIT

Key statistics

Satellite CZ-6A DEB at a glance.

Uptime

273

Days in orbit

Revolutions

≈ 14.1

Per day

Orbit

LEO

Low Earth Orbit

Inclination

89.0

Latest

Satellite identification and parameters

Extended collection of information and parameters for CZ-6A DEB.

Object identification

Identified? True

Debris? True

Object name: CZ-6A DEB

International designator: 2024-140JJ

Object number (NORAD): 60855

Object ID (CCSDS): 60855

Country: PEOPLES REPUBLIC OF CHINA (PRC)

Current information (Y/N): Y

RCS size: MEDIUM

Orbital parameters

Period: 101.869 minutes

Inclination: 89.0236 deg

SMA: 7225.288 km

Apoapsis: 901.947 km

Periapsis: 792.359 km

RAAN: 321.6276 deg

Eccentricy: 0.0075837

Argument of periapsis: 70.1567 deg

Mean anomaly: 290.7773 deg

Mean motion: 14.13578798 rev/day

Mean motion (dot): 0.00001248 rev/day2

B* drag term: 0.00063706 1/REarth

Two-line elements (TLE)

Creation date: May 6, 2025, 3:54 a.m.

Reference frame: TEME

Reference center: EARTH

Epoch: May 5, 2025, 7:35 p.m. UTC

TLE line 0: 0 CZ-6A DEB

TLE line 1: 1 60855U 24140JJ 25125.81613620 .00001248 00000-0 63706-3 0 9997

TLE line 2: 2 60855 89.0236 321.6276 0075837 70.1567 290.7773 14.13578798 37353

Live tracking on map

Real-time ground track for satellite CZ-6A DEB.

In-orbit conjunctions

A list of the most updated potential collisions computed for object CZ-6A DEB.

Target Orbit TCA Probability of collision Miss distance Type
NOAA 16 DEB SSO 2025-04-17 15:40:52 0.0001418188 57.0 (m) DEBRIS
DELTA 1 DEB SSO 2025-04-15 17:25:00 0.003357872 26.0 (m) DEBRIS
FENGYUN 1C DEB SSO 2025-04-07 23:34:11 0.0001331241 14.0 (m) DEBRIS
FENGYUN 1C DEB SSO 2025-03-12 16:30:43 0.0004918311 85.0 (m) DEBRIS
CZ-6A DEB LEO 2025-01-06 09:32:31 0.0003695697 295.0 (m) DEBRIS

Associated space launch

18 Low Earth Orbit communication satellites with Ku, Q and V band payloads for the G60 constellation operated by Shanghai Spacecom Satellite Technology (SSST) with funding backed by the Shanghai local government. Initial constellation will consist of 1296 satellites by 2027 with long term plans to expand it to 12000 satellites.

CZ-6A DEB was lifted into orbit during the mission ‘Long March 6A | G60 Polar Group 01’, on board a Long March 6A space rocket.

The launch took place on Aug. 6, 2024, 6:42 a.m. from Launch Complex 9A.

For more information about the launch, click the button.

Launch to space Long March 6A | G60 Polar Group 01
Long March 6A | G60 Polar Group 01

Agency: N/A

Status: Launch Successful

Launch date: Aug. 6, 2024, 6:42 a.m. UTC

Rocket: Long March 6A

Launch pad: Launch Complex 9A

Location: Taiyuan Satellite Launch Center, People's Republic of China

...

Latest news about this satellite

News about space launch
Brightness of first Chinese broadband constellation satellites alarms astronomers

The first satellites of a Chinese broadband constellation are significantly brighter than those of Western systems, posing a new challenge for astronomers.

News about space launch
Chinese rocket stage breaks up into cloud of more than 700 pieces of space debris

HELSINKI — A Chinese Long March 6A rocket’s upper stage has fragmented into a cloud of over 700 pieces of space debris, adding to concerns about long-term orbital safety. China […]

News about space launch
China's Thousand Sails Megaconstellation Kicks Off with Dangerous Debris Field

China's Thousand Sails Megaconstellation Kicks Off with Dangerous Debris Field


Newsletter sign-up

Weekly statistics, charts and insights to help you stay on top of the space industry.